Regional Weather Roundup
Issued by NWS Grand Forks, ND

Home | Current Version | Previous Version | Text Only | Print | Product List | Glossary On
Versions: 1 2 3 4 5 6 7 8 9 10 11 12 13 14 15 16 17 18 19 20 21 22 23 24 25 26 27 28 29 30 31 32 33 34 35 36 37 38 39 40 41 42 43 44 45 46 47 48 49 50
000
ASUS43 KFGF 211131
RWRFGF
PRAIRIE TO PINES  WEATHER ROUNDUP
NATIONAL WEATHER SERVICE EASTERN NORTH DAKOTA/GRAND FORKS ND
500 AM CST WED FEB 21 2018

 **SATELLITE DATA USED TO AUGMENT SKY COVER AT AUTOMATED STATIONS**
 *****  WEATHER ACROSS EASTERN NORTH DAKOTA  *****

CITY           SKY/WX    TMP DP  RH WIND       PRES   REMARKS
GRAND FORKS    FAIR       1  -7  68 W9        30.33R WCI -14
GRAND FRKS AFB CLEAR      1  -6  71 W14       30.30S WCI -17
GRAND FRKS NWS   N/A     -1  -6  80 W6        30.31R WCI -13
DEVILS LAKE    FAIR      -7 -12  79 W12       30.30R WCI -26
FARGO          FAIR      -1  -8  72 SW13      30.39R WCI -19
WAHPETON ARPT  FAIR      -8 -15  71 SW7       30.45R WCI -22
$$

 ***** WEATHER ACROSS CENTRAL AND WESTERN NORTH DAKOTA  *****

CITY           SKY/WX    TMP DP  RH WIND       PRES   REMARKS
BISMARCK       FAIR      -5 -14  65 W7        30.35R WCI -19
MINOT          FAIR      -2 -12  62 SW17      30.26R WCI -23
JAMESTOWN      FAIR      -2 -10  69 W7        30.33R WCI -15
MINOT AFB      FAIR      -4 -13  67 SW12      30.25R WCI -23
GARRISON         N/A     -8 -15  71 CALM      30.27S
WILLISTON      FAIR      -9 -16  71 SE6       30.28R WCI -22
DICKINSON      FAIR      -3 -12  65 W14       30.23R WCI -22
HETTINGER      FAIR      -9 -16  71 SW5       30.29R WCI -20
$$

 *****  OTHER AIRPORT OBSERVATIONS IN OUR AREA  *****

CITY           SKY/WX    TMP DP  RH WIND       PRES   REMARKS
WALHALLA       FAIR       3  -6  66 W14G21    30.26R WCI -15
GRAFTON AIRPOR FAIR       0  -8  71 W8        30.33R WCI -15
VALLEY CITY AR FAIR      -4 -11  71 SW8       30.37R WCI -19
CANDO          FAIR      -6 -11  77 W12       30.29R WCI -24
CAVALIER APRT    N/A      0  -8  71 W9        30.29R WCI -16
GWINNER          N/A    -11 -17  77 SW10      30.42R WCI -30
SHEYENNE NWR     N/A    -11 -17  75 SW8       29.95S WCI -28
ROLLA          FAIR      -4  -9  77 W9        30.22R WCI -20
 ***** THE ABOVE OBSERVATIONS ARE NON NWS ARE NOT QUALITY
       CONTROLLED AND MAY MIS-REPORT RAIN FOR SNOW...
$$

  *****  WEATHER ACROSS NORTHERN MINNESOTA  *****

CITY           SKY/WX    TMP DP  RH WIND       PRES   REMARKS
FLAG ISLAND    FAIR      -2  -8  78 SW13      30.21R WCI -21
WARROAD        FAIR      -2  -8  78 SW10      30.25R WCI -19
ROSEAU         FAIR       0  -8  71 SW14      30.26R WCI -19
HALLOCK        FAIR      -6 -11  77 SW9       30.30R WCI -22
THF RVR FALLS  FAIR      -4  -9  79 SW14      30.31R WCI -24
BAUDETTE       FAIR      -4  -8  83 SW7       30.23R WCI -18
WASKISH        FAIR       0  -6  78 SW9       30.29R WCI -16
CROOKSTON      FAIR      -9 -15  77 S9        30.37R WCI -27
STEPHEN NDAWN    N/A     -4  -9  77 SW8         N/A  WCI -19
GREENBUSH NDAW   N/A     -2  -8  78 SW12        N/A  WCI -20
$$
  *****  WEATHER ACROSS CENTRAL AND WEST MINNESOTA  *****

CITY           SKY/WX    TMP DP  RH WIND       PRES   REMARKS
FOSSTON        FAIR     -11 -18  70 S8        30.34R WCI -28
BEMIDJI        FAIR      -4  -8  83 SW6       30.31R WCI -16
PARK RAPIDS    FAIR      -9 -15  75 SW8       30.33R WCI -25
ELBOW LAKE     FAIR      -9 -12  83 W6        30.44R WCI -22
WADENA         FAIR      -8 -11  84 SW8       30.38R WCI -23
DETROIT LAKES  FAIR      -6  -9  84 SW6       30.38R WCI -18
MOORHEAD       FAIR      -8 -13  77 S7        30.42R WCI -22
FERGUS FALLS   FAIR      -9 -15  77 S6        30.44R WCI -23
MORRIS MN      FAIR      -6 -11  77 W8        30.44R WCI -21
STAPLES        FAIR      -6  -9  84 SW6       30.39R WCI -18
$$
  *****  WEATHER ELSEWHERE ACROSS MINNESOTA  *****

CITY           SKY/WX    TMP DP  RH WIND       PRES   REMARKS
DULUTH         FAIR      -4  -9  79 W12       30.32R WCI -22
INTRNTL FALLS  FAIR     -10 -15  78 SW5       30.26R WCI -22
ELY            FAIR      -4  -8  84 SW6       30.29R WCI -16
CLOQUET        FAIR       0  -6  78 W7        30.36R WCI -13
WHEATON        FAIR      -4 -11  71 SW8       30.47R WCI -19
BRAINERD       FAIR      -2  -8  76 SW6       30.39R WCI -14
HIBBING        FAIR     -17 -22  78 CALM      30.31R
ALEXANDRIA     FAIR      -3  -8  79 SW7       30.40R WCI -16
SAINT CLOUD    FAIR      -6  -9  86 W8        30.45R WCI -21
MINNEAPOLIS    FAIR       4   0  83 W6        30.50R WCI  -7
$$

  *****  WEATHER ACROSS SOUTH DAKOTA  *****

CITY           SKY/WX    TMP DP  RH WIND       PRES   REMARKS
SIOUX FALLS    FAIR      -3  -8  79 W3        30.50S
BROOKINGS        N/A     -6 -11  79 MISG        N/A
WATERTOWN      FAIR      -9 -13  83 W7        30.42R WCI -24
HURON          FAIR      -5 -11  75 SW7       30.49S WCI -19
SISSETON         N/A     -1  -9  68 NW5       30.42R WCI -11
ABERDEEN       FAIR     -13 -18  78 SW7       30.46R WCI -29
MITCHELL       FAIR      -2  -9  72 W10       30.52R WCI -19
PIERRE         FAIR      -6 -12  75 CALM      30.44R
MOBRIDGE       FAIR     -10 -17  71 CALM      30.37R
RAPID CITY     FAIR     -12 -17  78 CALM      30.27S
$$

  *****  SOME WEATHER IN NEARBY STATES *****

CITY           SKY/WX    TMP DP  RH WIND       PRES   REMARKS
GLASGOW MT     FAIR     -20 -25  77 SE5       30.25S WCI -33
GREAT FALLS MT MOCLDY    -7 -13  75 SW8       30.10S WCI -23
CHEYENNE WY    FAIR       3  -1  83 CALM      30.10S
SCOTTSBLUFF NE FAIR     -10 -14  82 CALM      30.26R
OMAHA NE       FAIR       9   3  77 N10       30.57R WCI  -5
DES MOINES IA  FAIR      13   6  74 N9        30.53R WCI   1
DAVENPORT IA   FAIR      21  14  74 NW14      30.46R WCI   8
CHICAGO IL     CLOUDY    30  23  75 NW16      30.35R WCI  19
EAU CLAIRE WI  FAIR       3  -2  79 W5        30.46R WCI  -6
LA CROSSE WI   FAIR      12   5  73 NW12      30.50R WCI  -2
$$

  *****  SOME NATIONAL WEATHER *****

CITY           SKY/WX    TMP DP  RH WIND       PRES   REMARKS
LA GUARDIA NY  CLOUDY    53  50  89 S8        30.29F
RALEIGH NC     CLOUDY    64  64 100 SW10      30.46R FOG
ATLANTA GA     CLOUDY    66  66 100 SE9       30.37S
NEW ORLEANS LA MOCLDY    72  72 100 SE10      30.19S
OKLAHOMA CITY  MOCLDY    22  17  81 N17G31    30.34R WCI   8
ALBUQUERQUE NM MOCLDY    31  16  54 N7        30.10S WCI  24
SALT LAKE CITY FAIR      19   8  62 S10       30.14F WCI   7
LOS ANGELES CA MOCLDY    48  25  40 NE3       30.11F
BOISE ID       FAIR      23   4  44 SE10      30.13F WCI  12
SEATTLE WA     FAIR      27  15  61 NE6       30.30F WCI  20
$$

*** WEATHER ACROSS MANITOBA...SASKATCHEWAN AND ONTARIO ***
                ***ONTARIO***

CITY           SKY/WX    TMP DP  RH WIND       PRES   REMARKS
GERALDTON      NOT AVBL
THUNDER BAY    NOT AVBL
SIOUX LOOKOUT  NOT AVBL
TORONTO        NOT AVBL
BIG TROUT LK   NOT AVBL
PICKLE LAKE    NOT AVBL
DRYDEN         NOT AVBL
KENORA         NOT AVBL
$$
                *** MANITOBA***

CITY           SKY/WX    TMP DP  RH WIND       PRES   REMARKS
BRANDON        NOT AVBL
DAUPHIN        NOT AVBL
ISLAND LAKE    NOT AVBL
PILOT MOUND    NOT AVBL
THE PAS        NOT AVBL
THOMPSON       NOT AVBL
WINNIPEG       NOT AVBL
$$
                ***SASKATCHEWAN***

CITY           SKY/WX    TMP DP  RH WIND       PRES   REMARKS
ESTEVAN        NOT AVBL
KINDERSLEY     NOT AVBL
LLOYDMINSTER   NOT AVBL
PRINCE ALBERT  NOT AVBL
REGINA         NOT AVBL
YORKTON        NOT AVBL
N. BATTLEFORD  NOT AVBL
LA RONGE       NOT AVBL
SASKATOON      NOT AVBL
SWIFT CURRENT  NOT AVBL
$$
NOTE: THESE ARE AUTOMATED STATIONS WITH LIMITED QUALITY CONTROL
      "FAIR" INDICATES FEW OR NO CLOUDS BELOW 12,000 FEET WITH NO
      SIGNIFICANT WEATHER AND/OR OBSTRUCTIONS TO VISIBILITY.
      SKY/WX - SKY CONDITION AND SIGNIFICANT WEATHER.
      TMP - AIR TEMPERATURE.    DP   - DEWPOINT TEMPERATURE.
      RH  - RELATIVE HUMIDITY.  PRES - PRESSURE.
      HX  - HEAT INDEX.         WCI  - WIND CHILL INDEX.
$



USA.gov is the U.S. government's official web portal to all federal, state and local government web resources and services.